Jackson, KY

4:56 AM EST on November 15, 2019 (GMT -0500)
Carroll

Weather History for KJKL - September, 2019

Change the Weather History Date:

Tuesday, September 24, 2019

  Actual Average Record
Temperature  
Mean Temperature 68 °F 65 °F  
Max Temperature 79 °F 75 °F 93 °F (2005)
Min Temperature 57 °F 55 °F 34 °F (1989)
Degree Days  
Heating Degree Days 0 3  
Month to date heating degree days 0 27  
Since 1 July heating degree days 0 29  
Cooling Degree Days 3 3  
Month to date cooling degree days 283 128  
Year to date cooling degree days 1420 1106  
Growing Degree Days 17 (Base 50)    
Moisture  
Dew Point 51 °F    
Average Humidity 66    
Maximum Humidity 100    
Minimum Humidity 31    
Precipitation  
Precipitation 0.00 in 0.12 in 1.89 in (2000)
Month to date precipitation T 2.76  
Year to date precipitation 39.46 36.31  
Snow  
Snow 0.00 in 0.00 in - ()
Month to date snowfall 0.0 0.0  
Since 1 July snowfall 0.0 0.0  
Since 1 September snowfall 0.0 0.0  
Snow Depth 0.00 in    
Sea Level Pressure  
Sea Level Pressure 29.99 in    
Wind  
Wind Speed 1 mph (West)    
Max Wind Speed 7 mph    
Max Gust Speed 13 mph    
Visibility 10 miles    
Events      
T = Trace of Precipitation, MM = Missing Value Source: NWS Daily Summary

Daily Weather History Graph

Daily Weather History Graph

Search for Another Location

Airport or City:

Astronomy

Sep. 24, 2019 Rise Set
Actual Time 7:22 AM EDT 7:27 PM EDT
Civil Twilight 6:56 AM EDT 7:53 PM EDT
Nautical Twilight 6:25 AM EDT 8:23 PM EDT
Astronomical Twilight 5:55 AM EDT 8:54 PM EDT
Moon 2:13 AM EDT (9/24) 5:05 PM EDT (9/24)
Length of Visible Light 12h 57m
Length of Day
12h 04m
Waning Crescent, 23% of the Moon is Illuminated
Sep 24
Waning Crescent
Sep 28
New
Oct 5
First Quarter
Oct 13
Full
Oct 21
Last Quarter

Hourly Weather History & Observations

Time (EDT) Temp. Dew Point Humidity Pressure Visibility Wind Dir Wind Speed Gust Speed Precip Events Conditions
12:53 AM 64.9 °F 64.9 °F 100% 29.99 in 5.0 mi West 3.5 mph - N/A   Partly Cloudy
1:53 AM 64.9 °F 64.9 °F 100% 29.99 in 10.0 mi Variable 3.5 mph - N/A   Clear
2:53 AM 63.0 °F 60.1 °F 90% 29.99 in 10.0 mi Calm Calm - N/A   Clear
3:53 AM 61.0 °F 57.0 °F 87% 30.01 in 10.0 mi Calm Calm - N/A   Clear
4:53 AM 60.1 °F 55.0 °F 83% 30.01 in 10.0 mi Calm Calm - N/A   Clear
5:53 AM 57.9 °F 54.0 °F 87% 30.01 in 10.0 mi Calm Calm - N/A   Clear
6:53 AM 57.9 °F 52.0 °F 81% 30.02 in 10.0 mi Calm Calm - N/A   Clear
7:53 AM 57.9 °F 52.0 °F 81% 30.04 in 10.0 mi Calm Calm - N/A   Clear
8:53 AM 62.1 °F 53.1 °F 72% 30.05 in 10.0 mi Calm Calm - N/A   Clear
9:53 AM 66.0 °F 52.0 °F 60% 30.05 in 10.0 mi Variable 3.5 mph - N/A   Clear
10:53 AM 70.0 °F 48.0 °F 46% 30.05 in 10.0 mi North - - N/A   Clear
11:53 AM 70.0 °F 48.0 °F 46% 30.04 in 10.0 mi Variable 4.6 mph - N/A   Clear
12:53 PM 72.0 °F 46.9 °F 41% 30.01 in 10.0 mi North - - N/A   Clear
1:53 PM 75.9 °F 46.0 °F 35% 30.00 in 10.0 mi Calm Calm - N/A   Clear
2:53 PM 75.0 °F 46.0 °F 36% 29.98 in 10.0 mi Variable 4.6 mph - N/A   Clear
3:53 PM 75.9 °F 45.0 °F 33% 29.95 in 10.0 mi Variable 3.5 mph - N/A   Clear
4:53 PM 77.0 °F 45.0 °F 32% 29.94 in 10.0 mi North - - N/A   Clear
6:53 PM 72.0 °F 46.9 °F 41% 29.95 in 10.0 mi Calm Calm - N/A   Clear
7:53 PM 69.1 °F 48.0 °F 47% 29.95 in 10.0 mi Calm Calm - N/A   Clear
8:53 PM 66.0 °F 48.0 °F 52% 29.95 in 10.0 mi Calm Calm - N/A   Clear
9:53 PM 66.0 °F 48.0 °F 52% 29.95 in 10.0 mi Calm Calm - N/A   Clear
10:53 PM 64.9 °F 48.0 °F 54% 29.95 in 10.0 mi Calm Calm - N/A   Clear
11:53 PM 63.0 °F 48.0 °F 58% 29.94 in 10.0 mi Calm Calm - N/A   Clear